{"data":{"norad_id":42947,"intl_designator":"2017-058C","name":"YAOGAN-30 02C","alt_names":[],"object_type":"PAYLOAD","status":"ACTIVE","operator":null,"country":"PRC","launch_date":"2017-09-29","launch_site_code":"XICLF","launch_vehicle":null,"mission":null,"orbit_class":"UNKNOWN","rcs_meters":null,"size_class":null,"mass_kg":null,"dimensions":null,"purposes":[],"wikipedia_slug":null,"has_3d_model":false,"image_url":null,"decayed_at":null,"tle_current":{"epoch":"2026-09-20T03:29:29.224896Z","epoch_age_seconds":79036,"freshness":"FRESH","line1":"1 42947U 17058C   26263.14547714  .00001975  00000+0  13844-3 0  9993","line2":"2 42947  34.9965 160.0695 0005541 314.1622  45.8632 15.04983693490138","mean_motion":15.04983693,"eccentricity":0.0005541,"inclination_deg":34.9965,"raan_deg":160.0695,"arg_perigee_deg":314.1622,"mean_anomaly_deg":45.8632,"bstar":0.00013844,"rev_number":49013,"period_min":95.682099859138,"perigee_km":547.71599597995,"apogee_km":555.39548147301,"semimajor_km":6929.6927387265,"source":"CELESTRAK","updated_at":"2026-09-20T09:00:14.252955Z"}}}